Regional Weather Roundup
Issued by NWS

Home | Current Version | Previous Version | Graphics & Text | Print | Product List | Glossary On
Versions: 1 2 3 4 5 6 7 8 9 10 11 12 13 14 15 16 17 18 19 20 21 22 23 24 25 26 27 28 29 30 31 32 33 34 35 36 37 38 39 40 41 42 43 44
000
ASUS45 KPSR 251810
RWRAZ

ARIZONA HOURLY REGIONAL WEATHER ROUNDUP
NATIONAL WEATHER SERVICE PHOENIX AZ
1100 AM MST THU MAY 25 2017

NOTE: FAIR INDICATES FEW OR NO CLOUDS BELOW 12,000 FEET WITH NO
SIGNIFICANT WEATHER AND/OR OBSTRUCTIONS TO VISIBILITY.

AZZ001>003-036-251900-
NORTHWEST ARIZONA

CITY           SKY/WX    TMP DP  RH WIND       PRES   REMARKS
BULLHEAD CITY  SUNNY     95  21   7 S21G33    29.54S
KINGMAN        SUNNY     85  26  11 SW20G31   29.72S
6HR MIN TEMP:  68; 6HR MAX TEMP:  85;

$$

AZZ004>008-015-016-018-251900-
NORTH CENTRAL ARIZONA

CITY           SKY/WX    TMP DP  RH WIND       PRES   REMARKS
GRAND CANYON   SUNNY     74  28  18 SW17G33   29.86F
6HR MIN TEMP:  54; 6HR MAX TEMP:  74;

WILLIAMS       SUNNY     72  23  16 SW23G32   29.92S
PRESCOTT       SUNNY     78  21  12 SW16G25   29.86S
6HR MIN TEMP:  57; 6HR MAX TEMP:  79;

FLAGSTAFF      SUNNY     68  22  17 SW26      29.94R
6HR MIN TEMP:  43; 6HR MAX TEMP:  68;

PAYSON         SUNNY     77  18  10 S15G21    29.93S
PAGE           SUNNY     85  17   8 W8G18     29.66S
6HR MIN TEMP:  74; 6HR MAX TEMP:  85;

$$

AZZ009>014-017-251900-
NORTHEAST ARIZONA

CITY           SKY/WX    TMP DP  RH WIND       PRES   REMARKS
WINSLOW        SUNNY     83  20   9 SW22G36   29.80F
6HR MIN TEMP:  52; 6HR MAX TEMP:  83;

SAINT JOHNS    MOSUNNY   79  11   7 SW25G35   29.87S
6HR MIN TEMP:  58; 6HR MAX TEMP:  79;

WINDOW ROCK    SUNNY     75  19  12 SW18G29   29.89F
6HR MIN TEMP:  51; 6HR MAX TEMP:  75;

SHOW LOW       PTSUNNY   72  16  12 SW24G33   29.96R
$$

AZZ540-542>544-546-548-251900-
GREATER PHOENIX AREA

CITY           SKY/WX    TMP DP  RH WIND       PRES   REMARKS
PHOENIX        PTSUNNY   91  25   9 SW8       29.68S
6HR MIN TEMP:  79; 6HR MAX TEMP:  92;

BUCKEYE        MOSUNNY   91  19   7 SW15G22   29.69S
GLENDALE       PTSUNNY   91  23   8 S13G18    29.70S
LUKE AFB       MOSUNNY   90  26  10 SW14G21   29.68S
6HR MIN TEMP:  75; 6HR MAX TEMP:  90; 6HR PCP: TRACE;

DEER VALLEY    MOSUNNY   88  28  11 S8        29.70S
6HR MIN TEMP:  76; 6HR MAX TEMP:  89;

SCOTTSDALE     MOSUNNY   88  27  11 CALM      29.73S
6HR MIN TEMP:  76; 6HR MAX TEMP:  89;

MESA-FALCON    MOSUNNY   90  28  11 W7        29.72R
MESA-GATEWAY   PTSUNNY   90  21   8 SW13      29.72S
CHANDLER       SUNNY     93  12   5 SW12      29.70S
$$

AZZ539-553-251900-
SOUTHWEST MARICOPA COUNTY AND PINAL COUNTY

CITY           SKY/WX    TMP DP  RH WIND       PRES   REMARKS
CASA GRANDE    MOSUNNY   92  26   9 SW9       29.73R
6HR MIN TEMP:  71; 6HR MAX TEMP:  92;

GILA BEND      MOSUNNY   94  22   7 SW12      29.67F
6HR MIN TEMP:  77; 6HR MAX TEMP:  94;

$$

AZZ503-504-507>509-251900-
SOUTHEAST ARIZONA

CITY           SKY/WX    TMP DP  RH WIND       PRES   REMARKS
TUCSON         PTSUNNY   90  15   6 W13G18    29.82R
6HR MIN TEMP:  76; 6HR MAX TEMP:  92;

DAVIS-MONTHAN  PTSUNNY   91  15   6 W12       29.81S
6HR MIN TEMP:  70; 6HR MAX TEMP:  91;

RYAN FIELD     SUNNY     91  19   7 SW16G25   29.80S
NOGALES        SUNNY     86  19   8 S17G23    29.93R
SIERRA VISTA   MOSUNNY   83  13   7 SW20G28   29.95R
6HR MIN TEMP:  72; 6HR MAX TEMP:  85;

DOUGLAS        PTSUNNY   85  13   7 SW23G31   29.92R
6HR MIN TEMP:  66; 6HR MAX TEMP:  87;

SAFFORD        PTSUNNY   87  17   7 VRB6      29.79S
6HR MIN TEMP:  63; 6HR MAX TEMP:  90;

$$

AZZ532-251900-
SOUTHWEST ARIZONA

CITY           SKY/WX    TMP DP  RH WIND       PRES   REMARKS
YUMA           PTSUNNY   88  21   8 S9        29.66S
6HR MIN TEMP:  69; 6HR MAX TEMP:  88;

$$

CAZ041-043-047-048-061-525>527-560>570-251900-
SOUTHERN CALIFORNIA

CITY           SKY/WX    TMP DP  RH WIND       PRES   REMARKS
DOWNTOWN L.A.  CLOUDY    65  49  56 CALM      29.88S
6HR MIN TEMP:  61; 6HR MAX TEMP:  65;

L.A. AIRPORT   CLOUDY    62  51  67 SW9       29.89R
6HR MIN TEMP:  59; 6HR MAX TEMP:  63;

SAN DIEGO      CLOUDY    64  51  62 SW8       29.92R
6HR MIN TEMP:  61; 6HR MAX TEMP:  64;

BURBANK        CLOUDY    61  46  57 VRB5      29.88S
6HR MIN TEMP:  58; 6HR MAX TEMP:  61;

ONTARIO        CLOUDY    64  48  56 SW8       29.87S
6HR MIN TEMP:  56; 6HR MAX TEMP:  65; 6HR PCP: TRACE;

RIVERSIDE      PTSUNNY   65  49  56 VRB5G17   29.87S
6HR MIN TEMP:  56; 6HR MAX TEMP:  68;

PALM SPRINGS   SUNNY     88  38  17 NW10      29.63R
6HR MIN TEMP:  68; 6HR MAX TEMP:  89;

EL CENTRO NAS  MOSUNNY   92  11   5 SE10      29.63F
6HR MIN TEMP:  77; 6HR MAX TEMP:  93;

IMPERIAL       LGT RAIN  92  16   6 S6        29.61F
6HR MIN TEMP:  73; 6HR MAX TEMP:  93; 6HR PCP: TRACE;

BLYTHE         SUNNY     94  11   4 S14       29.60S
6HR MIN TEMP:  68; 6HR MAX TEMP:  95;

NEEDLES        SUNNY     98  11   4 SW9G23    29.58S
6HR MIN TEMP:  82; 6HR MAX TEMP:  99;

$$

NVZ020-UTZ003-251900-
SOUTHERN NEVADA-UTAH

CITY           SKY/WX    TMP DP  RH WIND       PRES   REMARKS
LAS VEGAS      MOSUNNY   91  23   8 SE8       29.56F
6HR MIN TEMP:  77; 6HR MAX TEMP:  91;

SALT LAKE CITY PTSUNNY   65  29  25 W13       29.74R
6HR MIN TEMP:  56; 6HR MAX TEMP:  66; 6HR PCP: TRACE;

$$

NMZ009-TXZ055-251900-
NEW MEXICO-WEST TEXAS

CITY           SKY/WX    TMP DP  RH WIND       PRES   REMARKS
ALBUQUERQUE    CLOUDY    82  14   8 W24G33    29.83F
6HR MIN TEMP:  68; 6HR MAX TEMP:  82;

EL PASO        MOSUNNY   88  17   7 W20G30    29.86S
6HR MIN TEMP:  76; 6HR MAX TEMP:  90;

$$


........................KEY........................
SKY/WX - SKY CONDITION/WEATHER
TMP    - TEMPERATURE IN FAHRENHEIT
DP     - DEW POINT IN FAHRENHEIT
RH     - RELATIVE HUMIDITY IN PERCENT
WIND   - DIRECTION AND SPEED IN MILES PER HOUR (MPH)
VRB    - VARIABLE WIND DIRECTION
PRES   - MEAN SEA LEVEL PRESSURE IN INCHES OF MERCURY
         F - FALLING PRESSURE   R - RISING PRESSURE
         S - STEADY PRESSURE
VSB    - VISIBILITY IN MILES
HX     - HEAT INDEX IN FAHRENHEIT
WCI    - WIND CHILL INDEX IN FAHRENHEIT
TC     - TEMPERATURE IN CELSIUS WHICH IS ALSO KNOWN AS
         TEMPERATURE IN CENTIGRADE
AFB    - AIR FORCE BASE
         LUKE AFB IS LUKE AIR FORCE BASE
         DAVIS-MONTHAN IS DAVIS-MONTHAN AIR FORCE BASE
NAS    - NAVAL AIR STATION
         EL CENTRO NAS IS EL CENTRO NAVAL AIR STATION
N/A    - NOT AVAILABLE





USA.gov is the U.S. government's official web portal to all federal, state and local government web resources and services.